When you browse on this site, cookies collect data to enhance your experience and personalize the content and advertising you see.
Visit our Privacy Policy to learn more. By continuing to use the site, you agree to this use of cookies and data.
  • In France
  • List of Countries
  • For 7 days
  • Water Temperature
  • Weather Map
  • Weather Widgets
  • user-avatar
    Login

    Hourly Weather Yasna

    Today, 22 August, Thursday

    Time Temperature Precipitation Wind Pressure Humidity
    00:00 +15°C° 0.1 mm 2 mps 724 mmHg 94%
    01:00 +15°C° 0 mm 2 mps 724 mmHg 92%
    02:00 +14°C° 0.2 mm 2 mps 724 mmHg 93%
    03:00 +14°C° 0.2 mm 2 mps 724 mmHg 93%
    04:00 +14°C° 0.2 mm 1 mps 723 mmHg 94%
    05:00 +15°C° 0.1 mm 1 mps 724 mmHg 92%
    06:00 +16°C° 0.1 mm 1 mps 724 mmHg 89%
    07:00 +18°C° 0 mm 1 mps 725 mmHg 85%
    08:00 +20°C° 0.1 mm 1 mps 725 mmHg 77%
    09:00 +22°C° 0.1 mm 1 mps 725 mmHg 70%
    10:00 +24°C° 0.1 mm 1 mps 725 mmHg 62%
    11:00 +25°C° 0.2 mm 1 mps 725 mmHg 62%
    12:00 +25°C° 0.2 mm 1 mps 725 mmHg 62%
    13:00 +25°C° 0.2 mm 1 mps 725 mmHg 62%
    14:00 +25°C° 0.1 mm 1 mps 725 mmHg 66%
    15:00 +24°C° 0.1 mm 1 mps 724 mmHg 69%
    16:00 +24°C° 0.1 mm 1 mps 724 mmHg 73%
    17:00 +22°C° 0 mm 1 mps 724 mmHg 78%
    18:00 +21°C° 0 mm 1 mps 724 mmHg 83%
    19:00 +20°C° 0 mm 1 mps 724 mmHg 89%
    20:00 +19°C° 0 mm 1 mps 724 mmHg 89%
    21:00 +19°C° 0 mm 1 mps 724 mmHg 89%
    22:00 +18°C° 0 mm 1 mps 724 mmHg 90%
    23:00 +18°C° 0 mm 1 mps 724 mmHg 90%

    Tomorrow, 23 August, Friday

    Time Temperature Precipitation Wind Pressure Humidity
    00:00 +18°C° 0 mm 1 mps 724 mmHg 91%
    01:00 +18°C° 0 mm 1 mps 724 mmHg 91%
    02:00 +16°C° 0 mm 1 mps 724 mmHg 91%
    03:00 +16°C° 0 mm 1 mps 724 mmHg 91%
    04:00 +16°C° 0 mm 1 mps 723 mmHg 91%
    05:00 +18°C° 0 mm 1 mps 724 mmHg 87%
    06:00 +19°C° 0 mm 1 mps 724 mmHg 83%
    07:00 +19°C° 0 mm 0 mps 724 mmHg 79%
    08:00 +22°C° 0 mm 1 mps 724 mmHg 73%
    09:00 +24°C° 0 mm 1 mps 725 mmHg 67%
    10:00 +26°C° 0 mm 1 mps 725 mmHg 61%
    11:00 +27°C° 0 mm 1 mps 725 mmHg 59%
    12:00 +28°C° 0 mm 1 mps 725 mmHg 57%
    13:00 +28°C° 0 mm 1 mps 724 mmHg 55%
    14:00 +28°C° 0 mm 1 mps 724 mmHg 56%
    15:00 +28°C° 0 mm 1 mps 724 mmHg 57%
    16:00 +28°C° 0 mm 1 mps 724 mmHg 57%
    17:00 +26°C° 0.2 mm 1 mps 723 mmHg 65%
    18:00 +22°C° 0.2 mm 0 mps 723 mmHg 73%
    19:00 +20°C° 0.2 mm 0 mps 723 mmHg 81%
    20:00 +19°C° 0.5 mm 0 mps 723 mmHg 83%
    21:00 +21°C° 0.5 mm 1 mps 723 mmHg 86%
    22:00 +20°C° 0.5 mm 1 mps 723 mmHg 88%
    23:00 +20°C° 0.2 mm 1 mps 723 mmHg 88%

    Day after tomorrow, 24 August, Saturday

    Time Temperature Precipitation Wind Pressure Humidity
    00:00 +20°C° 0.2 mm 1 mps 723 mmHg 89%
    01:00 +19°C° 0.2 mm 1 mps 722 mmHg 90%
    02:00 +19°C° 0 mm 1 mps 722 mmHg 89%
    03:00 +19°C° 0 mm 1 mps 722 mmHg 89%
    04:00 +19°C° 0 mm 1 mps 722 mmHg 88%
    05:00 +20°C° 0 mm 1 mps 722 mmHg 85%
    06:00 +21°C° 0 mm 1 mps 722 mmHg 82%
    07:00 +22°C° 0 mm 1 mps 723 mmHg 78%
    08:00 +24°C° 0 mm 1 mps 723 mmHg 70%
    09:00 +27°C° 0 mm 1 mps 723 mmHg 62%
    10:00 +29°C° 0 mm 1 mps 723 mmHg 54%
    11:00 +29°C° 0.1 mm 1 mps 723 mmHg 51%
    12:00 +30°C° 0.1 mm 1 mps 723 mmHg 48%
    13:00 +31°C° 0.1 mm 1 mps 723 mmHg 46%
    14:00 +30°C° 0 mm 1 mps 722 mmHg 48%
    15:00 +30°C° 0 mm 1 mps 722 mmHg 49%
    16:00 +30°C° 0 mm 1 mps 722 mmHg 51%
    17:00 +27°C° 0.4 mm 1 mps 721 mmHg 59%
    18:00 +25°C° 0.4 mm 1 mps 721 mmHg 67%
    19:00 +23°C° 0.4 mm 1 mps 721 mmHg 75%
    20:00 +22°C° 0.6 mm 1 mps 721 mmHg 78%
    21:00 +22°C° 0.6 mm 1 mps 721 mmHg 81%
    22:00 +21°C° 0.6 mm 1 mps 721 mmHg 85%
    23:00 +21°C° 0.4 mm 1 mps 721 mmHg 86%

    25 August, Sunday

    Time Temperature Precipitation Wind Pressure Humidity
    00:00 +20°C° 0.4 mm 1 mps 721 mmHg 86%
    01:00 +20°C° 0.4 mm 1 mps 721 mmHg 87%
    02:00 +20°C° 0.3 mm 1 mps 721 mmHg 87%
    03:00 +20°C° 0.3 mm 1 mps 721 mmHg 88%
    04:00 +19°C° 0.3 mm 1 mps 721 mmHg 88%
    05:00 +20°C° 0.4 mm 1 mps 721 mmHg 86%
    06:00 +21°C° 0.4 mm 1 mps 721 mmHg 84%
    07:00 +22°C° 0.4 mm 1 mps 721 mmHg 82%
    08:00 +24°C° 0.1 mm 1 mps 721 mmHg 74%
    09:00 +27°C° 0.1 mm 1 mps 722 mmHg 65%
    10:00 +29°C° 0.1 mm 1 mps 722 mmHg 57%
    11:00 +29°C° 0.3 mm 1 mps 722 mmHg 54%
    12:00 +30°C° 0.3 mm 1 mps 722 mmHg 52%
    13:00 +30°C° 0.3 mm 1 mps 722 mmHg 50%
    14:00 +30°C° 0 mm 1 mps 721 mmHg 51%
    15:00 +30°C° 0 mm 1 mps 721 mmHg 52%
    16:00 +29°C° 0 mm 1 mps 721 mmHg 53%
    17:00 +27°C° 0 mm 1 mps 721 mmHg 59%
    18:00 +25°C° 0 mm 1 mps 720 mmHg 65%
    19:00 +23°C° 0 mm 1 mps 720 mmHg 71%
    20:00 +23°C° 0.3 mm 1 mps 720 mmHg 74%
    21:00 +22°C° 0.3 mm 1 mps 721 mmHg 78%
    22:00 +21°C° 0.3 mm 1 mps 721 mmHg 81%
    23:00 +21°C° 0 mm 1 mps 721 mmHg 81%

    26 August, Monday

    Time Temperature Precipitation Wind Pressure Humidity
    00:00 +21°C° 0 mm 1 mps 720 mmHg 82%
    01:00 +20°C° 0 mm 1 mps 720 mmHg 82%
    02:00 +20°C° 0 mm 1 mps 720 mmHg 82%
    03:00 +20°C° 0 mm 1 mps 720 mmHg 82%
    04:00 +20°C° 0 mm 1 mps 720 mmHg 82%
    05:00 +21°C° 0 mm 1 mps 720 mmHg 80%
    06:00 +22°C° 0 mm 1 mps 721 mmHg 78%
    07:00 +23°C° 0 mm 1 mps 721 mmHg 76%
    08:00 +25°C° 0.1 mm 1 mps 721 mmHg 68%
    09:00 +27°C° 0.1 mm 1 mps 722 mmHg 61%
    10:00 +29°C° 0.1 mm 1 mps 722 mmHg 53%
    11:00 +29°C° 0.1 mm 1 mps 722 mmHg 50%
    12:00 +30°C° 0.1 mm 1 mps 721 mmHg 47%
    13:00 +31°C° 0.1 mm 1 mps 721 mmHg 44%
    14:00 +31°C° 0 mm 1 mps 721 mmHg 46%
    15:00 +30°C° 0 mm 1 mps 721 mmHg 48%
    16:00 +30°C° 0 mm 2 mps 720 mmHg 49%
    17:00 +28°C° 0.2 mm 1 mps 720 mmHg 58%
    18:00 +25°C° 0.2 mm 1 mps 720 mmHg 66%
    19:00 +23°C° 0.2 mm 1 mps 719 mmHg 74%
    20:00 +22°C° 0.2 mm 1 mps 720 mmHg 76%
    21:00 +22°C° 0.2 mm 1 mps 720 mmHg 79%
    22:00 +21°C° 0.2 mm 1 mps 720 mmHg 81%
    23:00 +21°C° 0 mm 1 mps 720 mmHg 81%

    27 August, Tuesday

    Time Temperature Precipitation Wind Pressure Humidity
    00:00 +21°C° 0 mm 1 mps 720 mmHg 82%
    01:00 +20°C° 0 mm 1 mps 720 mmHg 82%
    02:00 +20°C° 0 mm 1 mps 719 mmHg 82%
    03:00 +20°C° 0 mm 1 mps 719 mmHg 82%
    04:00 +20°C° 0 mm 1 mps 719 mmHg 82%
    05:00 +21°C° 0 mm 1 mps 719 mmHg 80%
    06:00 +22°C° 0 mm 1 mps 719 mmHg 77%
    07:00 +23°C° 0 mm 1 mps 720 mmHg 74%
    08:00 +25°C° 0 mm 1 mps 720 mmHg 66%
    09:00 +28°C° 0 mm 1 mps 720 mmHg 58%
    10:00 +30°C° 0 mm 1 mps 721 mmHg 50%
    11:00 +30°C° 0 mm 1 mps 720 mmHg 47%
    12:00 +31°C° 0 mm 1 mps 720 mmHg 44%
    13:00 +32°C° 0 mm 1 mps 720 mmHg 41%
    14:00 +31°C° 0 mm 1 mps 720 mmHg 44%
    15:00 +30°C° 0 mm 1 mps 719 mmHg 46%
    16:00 +30°C° 0 mm 1 mps 719 mmHg 49%
    17:00 +28°C° 0.4 mm 1 mps 719 mmHg 57%
    18:00 +25°C° 0.4 mm 2 mps 719 mmHg 65%
    19:00 +23°C° 0.4 mm 2 mps 719 mmHg 73%
    20:00 +21°C° 0.2 mm 2 mps 719 mmHg 74%
    21:00 +21°C° 0.2 mm 2 mps 719 mmHg 76%
    22:00 +20°C° 0.2 mm 2 mps 719 mmHg 77%
    23:00 +19°C° 0.2 mm 2 mps 719 mmHg 77%
    Show more